Location: Habighorst
(52.7089°N, 10.2278°E)
Time: 20:29:56
(UTC+00:00)

SL-8 Rocket - Pass Details

Date: 13 January 2026
Orbit: 955 x 990 km, 82.9° (Epoch: 15 February)

Event Time Altitude Azimuth Distance (km) Brightness Sun altitude
Rises 06:25:09 0° 189° (S) 3,691 7.2 -8.7°
Reaches altitude 10° 06:27:40 10° 190° (S) 2,745 6.6 -8.4°
Maximum altitude 06:33:59 86° 279° (W) 996 4.1 -7.5°
Drops below altitude 10° 06:40:19 10° 10° (N) 2,746 6.2 -6.6°
Sets 06:42:50 0° 11° (N) 3,694 6.9 -6.3°
